Time,TemperatureF,DewpointF,PressureIn,WindDirection,WindDirectionDegrees,WindSpeedMPH,WindSpeedGustMPH,Humidity,HourlyPrecipIn,Conditions,Clouds,dailyrainin,SoftwareType,DateUTC
2013-03-01 00:00:00,31.1,28.8,30.02,NW,307,7.0,7.0,91,0.00,,,0.01,Wunderground v.1.15,2013-03-01 05:00:00,
2013-03-01 00:01:00,31.1,28.5,30.02,NW,324,7.0,10.0,90,0.00,,,0.00,Wunderground v.1.15,2013-03-01 05:01:00,
2013-03-01 00:03:00,31.1,28.8,30.02,NW,319,7.0,10.0,91,0.00,,,0.00,Wunderground v.1.15,2013-03-01 05:03:00,
2013-03-01 00:04:00,31.1,28.8,30.02,NW,307,7.0,10.0,91,0.00,,,0.00,Wunderground v.1.15,2013-03-01 05:04:00,
2013-03-01 00:06:00,31.1,28.8,30.02,NW,316,7.0,10.0,91,0.00,,,0.00,Wunderground v.1.15,2013-03-01 05:06:00,
2013-03-01 00:12:00,31.1,28.8,30.02,NNW,332,5.0,6.0,91,0.00,,,0.00,Wunderground v.1.15,2013-03-01 05:12:00,
2013-03-01 00:18:00,31.0,28.7,30.02,NNW,327,5.0,6.0,91,0.00,,,0.00,Wunderground v.1.15,2013-03-01 05:18:00,
2013-03-01 00:23:00,31.0,28.7,30.02,NW,316,6.0,8.0,91,0.00,,,0.00,Wunderground v.1.15,2013-03-01 05:23:00,
2013-03-01 00:29:00,31.0,28.7,30.01,NW,314,6.0,9.0,91,0.00,,,0.00,Wunderground v.1.15,2013-03-01 05:29:00,
2013-03-01 00:35:00,30.9,28.6,30.01,NW,322,6.0,13.0,91,0.00,,,0.00,Wunderground v.1.15,2013-03-01 05:35:00,
2013-03-01 00:40:00,30.9,28.6,30.01,NW,314,7.0,13.0,91,0.00,,,0.00,Wunderground v.1.15,2013-03-01 05:40:00,
2013-03-01 00:46:00,30.9,28.6,30.02,WNW,299,7.0,13.0,91,0.00,,,0.00,Wunderground v.1.15,2013-03-01 05:46:00,
2013-03-01 00:52:00,30.9,28.6,30.02,NNW,329,6.0,13.0,91,0.00,,,0.00,Wunderground v.1.15,2013-03-01 05:52:00,
2013-03-01 00:57:00,30.9,28.6,30.02,NNW,327,6.0,13.0,91,0.00,,,0.00,Wunderground v.1.15,2013-03-01 05:57:00,
2013-03-01 01:03:00,30.9,28.6,30.02,NW,314,6.0,9.0,91,0.00,,,0.00,Wunderground v.1.15,2013-03-01 06:03:00,
2013-03-01 01:09:00,30.8,28.8,30.02,NW,314,7.0,11.0,92,0.00,,,0.00,Wunderground v.1.15,2013-03-01 06:09:00,
2013-03-01 01:15:00,30.7,28.7,30.02,North,357,7.0,8.0,92,0.00,,,0.00,Wunderground v.1.15,2013-03-01 06:15:00,
2013-03-01 01:20:00,30.7,28.4,30.02,NW,314,7.0,8.0,91,0.00,,,0.00,Wunderground v.1.15,2013-03-01 06:20:00,
2013-03-01 01:26:00,30.7,28.4,30.02,NNW,342,7.0,13.0,91,0.00,,,0.00,Wunderground v.1.15,2013-03-01 06:26:00,
2013-03-01 01:31:00,30.6,28.3,30.02,NNW,330,7.0,11.0,91,0.00,,,0.00,Wunderground v.1.15,2013-03-01 06:31:00,
2013-03-01 01:37:00,30.6,28.3,30.02,NNW,345,7.0,11.0,91,0.00,,,0.00,Wunderground v.1.15,2013-03-01 06:37:00,
2013-03-01 01:43:00,30.6,28.3,30.02,NW,315,7.0,11.0,91,0.00,,,0.00,Wunderground v.1.15,2013-03-01 06:43:00,
2013-03-01 01:49:00,30.6,28.3,30.02,NW,319,7.0,11.0,91,0.00,,,0.00,Wunderground v.1.15,2013-03-01 06:49:00,
2013-03-01 01:55:00,30.5,28.2,30.02,NNW,333,7.0,11.0,91,0.00,,,0.00,Wunderground v.1.15,2013-03-01 06:55:00,
2013-03-01 02:00:00,30.5,28.5,30.02,NNW,328,7.0,7.0,92,0.00,,,0.00,Wunderground v.1.15,2013-03-01 07:00:00,
2013-03-01 02:06:00,30.5,28.5,30.01,NNW,330,6.0,9.0,92,0.00,,,0.00,Wunderground v.1.15,2013-03-01 07:06:00,
2013-03-01 02:12:00,30.4,28.4,30.01,NNW,328,5.0,7.0,92,0.00,,,0.00,Wunderground v.1.15,2013-03-01 07:12:00,
2013-03-01 02:18:00,30.4,28.4,30.01,NW,322,6.0,9.0,92,0.00,,,0.00,Wunderground v.1.15,2013-03-01 07:18:00,
2013-03-01 02:24:00,30.5,28.2,30.01,NNW,342,6.0,10.0,91,0.00,,,0.00,Wunderground v.1.15,2013-03-01 07:24:00,
2013-03-01 02:30:00,30.5,28.2,30.01,NW,316,7.0,7.0,91,0.00,,,0.00,Wunderground v.1.15,2013-03-01 07:30:00,
2013-03-01 02:36:00,30.5,28.2,30.01,NNW,328,6.0,14.0,91,0.00,,,0.00,Wunderground v.1.15,2013-03-01 07:36:00,
2013-03-01 02:42:00,30.5,28.5,30.01,NW,323,5.0,14.0,92,0.00,,,0.00,Wunderground v.1.15,2013-03-01 07:42:00,
2013-03-01 02:48:00,30.5,28.2,30.01,NW,316,6.0,14.0,91,0.00,,,0.00,Wunderground v.1.15,2013-03-01 07:48:00,
2013-03-01 02:54:00,30.5,28.2,30.01,NNW,338,6.0,14.0,91,0.00,,,0.00,Wunderground v.1.15,2013-03-01 07:54:00,
2013-03-01 02:59:00,30.5,28.5,30.01,NNW,333,6.0,14.0,92,0.00,,,0.00,Wunderground v.1.15,2013-03-01 07:59:00,
2013-03-01 03:05:00,30.5,28.5,30.01,NW,326,5.0,8.0,92,0.00,,,0.00,Wunderground v.1.15,2013-03-01 08:05:00,
2013-03-01 03:11:00,30.5,28.5,30.01,NNW,330,5.0,6.0,92,0.00,,,0.00,Wunderground v.1.15,2013-03-01 08:11:00,
2013-03-01 03:16:00,30.5,28.5,30.01,NW,322,5.0,6.0,92,0.00,,,0.00,Wunderground v.1.15,2013-03-01 08:16:00,
2013-03-01 03:22:00,30.5,28.5,30.01,NNW,328,5.0,5.0,92,0.00,,,0.00,Wunderground v.1.15,2013-03-01 08:22:00,
2013-03-01 03:28:00,30.5,28.5,30.01,NNW,332,5.0,7.0,92,0.00,,,0.00,Wunderground v.1.15,2013-03-01 08:28:00,
2013-03-01 03:34:00,30.5,28.5,30.01,North,357,5.0,10.0,92,0.00,,,0.00,Wunderground v.1.15,2013-03-01 08:34:00,
2013-03-01 03:40:00,30.4,28.4,30.01,NNW,334,5.0,10.0,92,0.00,,,0.00,Wunderground v.1.15,2013-03-01 08:40:00,
2013-03-01 03:46:00,30.4,28.4,30.00,NW,312,6.0,10.0,92,0.00,,,0.00,Wunderground v.1.15,2013-03-01 08:46:00,
2013-03-01 03:52:00,30.4,28.4,30.00,NNW,330,6.0,10.0,92,0.00,,,0.00,Wunderground v.1.15,2013-03-01 08:52:00,
2013-03-01 03:58:00,30.3,28.5,30.00,NNW,342,6.0,10.0,93,0.00,,,0.00,Wunderground v.1.15,2013-03-01 08:58:00,
2013-03-01 04:03:00,30.3,28.5,30.00,NW,325,6.0,7.0,93,0.00,,,0.00,Wunderground v.1.15,2013-03-01 09:03:00,
2013-03-01 04:09:00,30.2,28.4,30.00,NW,314,6.0,9.0,93,0.00,,,0.00,Wunderground v.1.15,2013-03-01 09:09:00,
2013-03-01 04:15:00,30.1,28.6,30.00,NNW,334,6.0,7.0,94,0.00,,,0.00,Wunderground v.1.15,2013-03-01 09:15:00,
2013-03-01 04:21:00,30.1,28.6,30.00,NW,314,5.0,5.0,94,0.00,,,0.00,Wunderground v.1.15,2013-03-01 09:21:00,
2013-03-01 04:27:00,30.0,28.5,30.01,NW,324,5.0,7.0,94,0.00,,,0.00,Wunderground v.1.15,2013-03-01 09:27:00,
2013-03-01 04:32:00,30.0,28.7,30.01,NNW,344,5.0,8.0,95,0.00,,,0.00,Wunderground v.1.15,2013-03-01 09:32:00,
2013-03-01 04:38:00,30.0,28.7,30.01,NW,311,5.0,8.0,95,0.00,,,0.00,Wunderground v.1.15,2013-03-01 09:38:00,
2013-03-01 04:43:00,30.0,28.7,30.01,NW,324,5.0,8.0,95,0.00,,,0.00,Wunderground v.1.15,2013-03-01 09:43:00,
2013-03-01 04:49:00,30.0,28.7,30.01,NW,319,6.0,8.0,95,0.00,,,0.00,Wunderground v.1.15,2013-03-01 09:49:00,
2013-03-01 04:55:00,30.0,28.7,30.01,NNW,342,5.0,8.0,95,0.00,,,0.00,Wunderground v.1.15,2013-03-01 09:55:00,
2013-03-01 05:00:00,30.0,28.7,30.01,NW,318,5.0,7.0,95,0.00,,,0.00,Wunderground v.1.15,2013-03-01 10:00:00,
2013-03-01 05:06:00,30.0,28.7,30.01,NNW,328,5.0,7.0,95,0.00,,,0.00,Wunderground v.1.15,2013-03-01 10:06:00,
2013-03-01 05:12:00,30.0,29.0,30.01,NNW,334,5.0,9.0,96,0.00,,,0.00,Wunderground v.1.15,2013-03-01 10:12:00,
2013-03-01 05:18:00,30.0,29.0,30.01,NNW,337,6.0,9.0,96,0.00,,,0.00,Wunderground v.1.15,2013-03-01 10:18:00,
2013-03-01 05:24:00,30.0,29.0,30.01,NNW,327,6.0,6.0,96,0.00,,,0.00,Wunderground v.1.15,2013-03-01 10:24:00,
2013-03-01 05:29:00,30.0,29.0,30.02,NW,322,5.0,7.0,96,0.00,,,0.00,Wunderground v.1.15,2013-03-01 10:29:00,
2013-03-01 05:35:00,30.0,29.0,30.02,NW,309,5.0,10.0,96,0.00,,,0.00,Wunderground v.1.15,2013-03-01 10:35:00,
2013-03-01 05:41:00,30.0,29.0,30.02,NW,312,6.0,10.0,96,0.00,,,0.00,Wunderground v.1.15,2013-03-01 10:41:00,
2013-03-01 05:47:00,30.0,29.0,30.02,NNW,335,5.0,10.0,96,0.00,,,0.00,Wunderground v.1.15,2013-03-01 10:47:00,
2013-03-01 05:53:00,30.0,29.0,30.02,NNW,333,6.0,10.0,96,0.00,,,0.00,Wunderground v.1.15,2013-03-01 10:53:00,
2013-03-01 05:59:00,30.0,29.0,30.02,NW,323,5.0,10.0,96,0.00,,,0.00,Wunderground v.1.15,2013-03-01 10:59:00,
2013-03-01 06:04:00,30.0,29.0,30.03,NNW,335,5.0,6.0,96,0.00,,,0.00,Wunderground v.1.15,2013-03-01 11:04:00,
2013-03-01 06:10:00,30.0,29.0,30.03,NNW,330,6.0,6.0,96,0.00,,,0.00,Wunderground v.1.15,2013-03-01 11:10:00,
2013-03-01 06:16:00,30.0,29.0,30.03,NNW,335,6.0,6.0,96,0.00,,,0.00,Wunderground v.1.15,2013-03-01 11:16:00,
2013-03-01 06:22:00,30.0,29.0,30.03,NNW,348,6.0,6.0,96,0.00,,,0.00,Wunderground v.1.15,2013-03-01 11:22:00,
2013-03-01 06:28:00,30.0,29.0,30.03,NNW,334,6.0,7.0,96,0.00,,,0.00,Wunderground v.1.15,2013-03-01 11:28:00,
2013-03-01 06:34:00,30.0,29.0,30.03,NNW,334,6.0,9.0,96,0.00,,,0.00,Wunderground v.1.15,2013-03-01 11:34:00,
2013-03-01 06:40:00,30.0,29.0,30.03,NNW,329,6.0,6.0,96,0.00,,,0.00,Wunderground v.1.15,2013-03-01 11:40:00,
2013-03-01 06:46:00,30.0,29.0,30.03,NE,41,6.0,9.0,96,0.00,,,0.00,Wunderground v.1.15,2013-03-01 11:46:00,
2013-03-01 06:52:00,30.1,29.1,30.03,NNE,19,6.0,9.0,96,0.00,,,0.00,Wunderground v.1.15,2013-03-01 11:52:00,
2013-03-01 06:58:00,30.1,29.1,30.03,North,360,5.0,9.0,96,0.00,,,0.00,Wunderground v.1.15,2013-03-01 11:58:00,
2013-03-01 07:04:00,30.1,29.1,30.03,North,356,5.0,8.0,96,0.00,,,0.00,Wunderground v.1.15,2013-03-01 12:04:00,
2013-03-01 07:10:00,30.1,29.1,30.03,NNW,330,5.0,5.0,96,0.00,,,0.00,Wunderground v.1.15,2013-03-01 12:10:00,
2013-03-01 07:16:00,30.1,29.1,30.03,North,11,6.0,7.0,96,0.00,,,0.00,Wunderground v.1.15,2013-03-01 12:16:00,
2013-03-01 07:22:00,30.0,29.0,30.03,North,360,6.0,8.0,96,0.00,,,0.00,Wunderground v.1.15,2013-03-01 12:22:00,
2013-03-01 07:28:00,30.0,29.0,30.04,North,1,6.0,9.0,96,0.00,,,0.00,Wunderground v.1.15,2013-03-01 12:28:00,
2013-03-01 07:33:00,29.9,28.9,30.04,North,9,7.0,9.0,96,0.00,,,0.00,Wunderground v.1.15,2013-03-01 12:33:00,
2013-03-01 07:39:00,29.8,28.8,30.04,NNE,29,9.0,11.0,96,0.00,,,0.00,Wunderground v.1.15,2013-03-01 12:39:00,
2013-03-01 07:45:00,29.8,28.8,30.05,North,4,9.0,11.0,96,0.00,,,0.00,Wunderground v.1.15,2013-03-01 12:45:00,
2013-03-01 07:51:00,29.8,28.8,30.05,NNE,24,8.0,9.0,96,0.00,,,0.00,Wunderground v.1.15,2013-03-01 12:51:00,
2013-03-01 07:57:00,29.7,28.7,30.05,North,352,8.0,9.0,96,0.00,,,0.00,Wunderground v.1.15,2013-03-01 12:57:00,
2013-03-01 08:03:00,29.8,28.8,30.05,NNE,16,8.0,9.0,96,0.00,,,0.00,Wunderground v.1.15,2013-03-01 13:03:00,
2013-03-01 08:09:00,29.8,28.8,30.05,North,9,7.0,9.0,96,0.00,,,0.00,Wunderground v.1.15,2013-03-01 13:09:00,
2013-03-01 08:15:00,29.8,28.8,30.06,NNE,15,7.0,8.0,96,0.00,,,0.00,Wunderground v.1.15,2013-03-01 13:15:00,
2013-03-01 08:21:00,29.8,28.8,30.06,NNE,13,6.0,6.0,96,0.00,,,0.00,Wunderground v.1.15,2013-03-01 13:21:00,
2013-03-01 08:27:00,29.8,28.8,30.06,NE,41,6.0,8.0,96,0.00,,,0.00,Wunderground v.1.15,2013-03-01 13:27:00,
2013-03-01 08:32:00,29.8,28.8,30.06,NNW,348,6.0,13.0,96,0.00,,,0.00,Wunderground v.1.15,2013-03-01 13:32:00,
2013-03-01 08:38:00,29.8,28.8,30.06,NNW,348,7.0,13.0,96,0.00,,,0.00,Wunderground v.1.15,2013-03-01 13:38:00,
2013-03-01 08:44:00,29.8,28.8,30.07,North,7,7.0,13.0,96,0.00,,,0.00,Wunderground v.1.15,2013-03-01 13:44:00,
2013-03-01 08:50:00,29.9,28.9,30.07,NNE,15,6.0,6.0,96,0.00,,,0.00,Wunderground v.1.15,2013-03-01 13:50:00,
2013-03-01 08:56:00,29.9,28.9,30.07,North,11,6.0,13.0,96,0.00,,,0.00,Wunderground v.1.15,2013-03-01 13:56:00,
2013-03-01 09:01:00,29.9,28.9,30.07,North,11,6.0,6.0,96,0.00,,,0.00,Wunderground v.1.15,2013-03-01 14:01:00,
2013-03-01 09:07:00,29.8,28.8,30.07,North,349,6.0,8.0,96,0.00,,,0.00,Wunderground v.1.15,2013-03-01 14:07:00,
2013-03-01 09:12:00,29.8,28.8,30.07,North,9,6.0,6.0,96,0.00,,,0.00,Wunderground v.1.15,2013-03-01 14:12:00,
2013-03-01 09:18:00,29.8,28.8,30.07,North,11,7.0,10.0,96,0.00,,,0.00,Wunderground v.1.15,2013-03-01 14:18:00,
2013-03-01 09:24:00,29.7,28.4,30.07,NNE,33,9.0,11.0,95,0.00,,,0.00,Wunderground v.1.15,2013-03-01 14:24:00,
2013-03-01 09:30:00,29.6,28.3,30.07,NNE,16,9.0,9.0,95,0.00,,,0.00,Wunderground v.1.15,2013-03-01 14:30:00,
2013-03-01 09:36:00,29.7,28.4,30.07,North,11,8.0,11.0,95,0.00,,,0.00,Wunderground v.1.15,2013-03-01 14:36:00,
2013-03-01 09:42:00,29.7,28.4,30.07,NNE,23,7.0,12.0,95,0.00,,,0.00,Wunderground v.1.15,2013-03-01 14:42:00,
2013-03-01 09:48:00,29.8,28.5,30.07,NNE,24,7.0,12.0,95,0.00,,,0.00,Wunderground v.1.15,2013-03-01 14:48:00,
2013-03-01 09:54:00,29.8,28.3,30.07,NNE,23,8.0,11.0,94,0.00,,,0.00,Wunderground v.1.15,2013-03-01 14:54:00,
2013-03-01 09:59:00,29.8,28.3,30.07,NNE,21,8.0,11.0,94,0.00,,,0.00,Wunderground v.1.15,2013-03-01 14:59:00,
2013-03-01 10:04:00,29.8,28.3,30.07,North,8,9.0,11.0,94,0.00,,,0.00,Wunderground v.1.15,2013-03-01 15:04:00,
2013-03-01 10:10:00,29.7,28.2,30.07,NNE,19,8.0,11.0,94,0.00,,,0.00,Wunderground v.1.15,2013-03-01 15:10:00,
2013-03-01 10:16:00,29.8,28.3,30.07,North,359,7.0,11.0,94,0.00,,,0.00,Wunderground v.1.15,2013-03-01 15:16:00,
2013-03-01 10:22:00,29.6,27.8,30.07,NE,54,6.0,9.0,93,0.00,,,0.00,Wunderground v.1.15,2013-03-01 15:22:00,
2013-03-01 10:28:00,29.6,27.8,30.08,NNE,25,6.0,9.0,93,0.00,,,0.00,Wunderground v.1.15,2013-03-01 15:28:00,
2013-03-01 10:34:00,29.6,27.3,30.08,NNE,26,8.0,15.0,91,0.00,,,0.00,Wunderground v.1.15,2013-03-01 15:34:00,
2013-03-01 10:40:00,29.6,27.0,30.08,NNE,26,9.0,14.0,90,0.00,,,0.00,Wunderground v.1.15,2013-03-01 15:40:00,
2013-03-01 10:46:00,29.6,27.3,30.08,NNE,15,8.0,14.0,91,0.00,,,0.00,Wunderground v.1.15,2013-03-01 15:46:00,
2013-03-01 10:52:00,29.7,26.9,30.09,NNE,25,9.0,14.0,89,0.00,,,0.00,Wunderground v.1.15,2013-03-01 15:52:00,
2013-03-01 10:57:00,29.7,27.1,30.09,NNE,32,9.0,14.0,90,0.00,,,0.00,Wunderground v.1.15,2013-03-01 15:57:00,
2013-03-01 11:03:00,29.8,27.0,30.09,NNE,18,10.0,16.0,89,0.00,,,0.00,Wunderground v.1.15,2013-03-01 16:03:00,
2013-03-01 11:08:00,29.8,26.7,30.09,NNE,26,10.0,16.0,88,0.00,,,0.00,Wunderground v.1.15,2013-03-01 16:08:00,
2013-03-01 11:14:00,29.9,27.1,30.09,NNE,26,9.0,13.0,89,0.00,,,0.00,Wunderground v.1.15,2013-03-01 16:14:00,
2013-03-01 11:20:00,30.0,26.6,30.09,NNE,30,10.0,12.0,87,0.00,,,0.00,Wunderground v.1.15,2013-03-01 16:20:00,
2013-03-01 11:26:00,30.1,27.0,30.09,NNE,13,10.0,12.0,88,0.00,,,0.00,Wunderground v.1.15,2013-03-01 16:26:00,
2013-03-01 11:32:00,30.2,26.8,30.09,North,357,10.0,16.0,87,0.00,,,0.00,Wunderground v.1.15,2013-03-01 16:32:00,
2013-03-01 11:38:00,30.4,27.3,30.09,NNE,13,10.0,16.0,88,0.00,,,0.00,Wunderground v.1.15,2013-03-01 16:38:00,
2013-03-01 11:45:00,30.6,27.2,30.09,NNE,16,9.0,15.0,87,0.00,,,0.00,Wunderground v.1.15,2013-03-01 16:45:00,
2013-03-01 11:51:00,30.6,26.9,30.09,NE,44,10.0,15.0,86,0.00,,,0.00,Wunderground v.1.15,2013-03-01 16:51:00,
2013-03-01 11:57:00,30.8,26.8,30.09,NNE,16,9.0,15.0,85,0.00,,,0.00,Wunderground v.1.15,2013-03-01 16:57:00,
2013-03-01 12:02:00,30.8,27.1,30.09,NNE,19,10.0,13.0,86,0.00,,,0.00,Wunderground v.1.15,2013-03-01 17:02:00,
2013-03-01 12:08:00,30.9,27.2,30.09,NE,37,10.0,13.0,86,0.00,,,0.00,Wunderground v.1.15,2013-03-01 17:08:00,
2013-03-01 12:13:00,30.9,26.6,30.09,NE,49,9.0,11.0,84,0.00,,,0.00,Wunderground v.1.15,2013-03-01 17:13:00,
2013-03-01 12:19:00,30.9,26.6,30.10,North,1,8.0,11.0,84,0.00,,,0.00,Wunderground v.1.15,2013-03-01 17:19:00,
2013-03-01 12:25:00,30.9,26.3,30.10,NNE,30,7.0,8.0,83,0.00,,,0.00,Wunderground v.1.15,2013-03-01 17:25:00,
2013-03-01 12:31:00,31.0,26.7,30.10,NNE,31,7.0,17.0,84,0.00,,,0.00,Wunderground v.1.15,2013-03-01 17:31:00,
2013-03-01 12:37:00,31.1,26.5,30.10,NNE,27,6.0,17.0,83,0.00,,,0.00,Wunderground v.1.15,2013-03-01 17:37:00,
2013-03-01 12:43:00,31.1,26.8,30.10,ENE,58,7.0,17.0,84,0.00,,,0.00,Wunderground v.1.15,2013-03-01 17:43:00,
2013-03-01 12:49:00,31.2,26.6,30.09,NNE,23,7.0,17.0,83,0.00,,,0.00,Wunderground v.1.15,2013-03-01 17:49:00,
2013-03-01 12:54:00,31.2,26.6,30.09,ENE,58,6.0,17.0,83,0.00,,,0.00,Wunderground v.1.15,2013-03-01 17:54:00,
2013-03-01 13:00:00,31.2,26.6,30.09,North,6,6.0,12.0,83,0.00,,,0.00,Wunderground v.1.15,2013-03-01 18:00:00,
2013-03-01 13:06:00,31.0,26.4,30.09,North,5,8.0,12.0,83,0.00,,,0.00,Wunderground v.1.15,2013-03-01 18:06:00,
2013-03-01 13:12:00,31.0,26.4,30.09,North,1,8.0,10.0,83,0.00,,,0.00,Wunderground v.1.15,2013-03-01 18:12:00,
2013-03-01 13:18:00,31.0,26.1,30.09,North,5,8.0,12.0,82,0.00,,,0.00,Wunderground v.1.15,2013-03-01 18:18:00,
2013-03-01 13:24:00,31.0,26.4,30.09,NNE,19,9.0,10.0,83,0.00,,,0.00,Wunderground v.1.15,2013-03-01 18:24:00,
2013-03-01 13:30:00,31.1,26.5,30.09,North,11,8.0,8.0,83,0.00,,,0.00,Wunderground v.1.15,2013-03-01 18:30:00,
2013-03-01 13:35:00,31.1,26.2,30.09,North,5,7.0,14.0,82,0.00,,,0.00,Wunderground v.1.15,2013-03-01 18:35:00,
2013-03-01 13:41:00,31.4,26.5,30.09,ENE,65,7.0,14.0,82,0.00,,,0.00,Wunderground v.1.15,2013-03-01 18:41:00,
2013-03-01 13:47:00,31.2,25.7,30.09,NNE,23,7.0,14.0,80,0.00,,,0.00,Wunderground v.1.15,2013-03-01 18:47:00,
2013-03-01 13:53:00,31.1,25.7,30.08,NNE,20,8.0,14.0,80,0.00,,,0.00,Wunderground v.1.15,2013-03-01 18:53:00,
2013-03-01 13:59:00,31.1,25.7,30.08,NE,52,6.0,14.0,80,0.00,,,0.00,Wunderground v.1.15,2013-03-01 18:59:00,
2013-03-01 14:05:00,31.2,26.0,30.08,NNW,338,6.0,8.0,81,0.00,,,0.00,Wunderground v.1.15,2013-03-01 19:05:00,
2013-03-01 14:11:00,31.2,25.7,30.08,NE,49,7.0,8.0,80,0.00,,,0.00,Wunderground v.1.15,2013-03-01 19:11:00,
2013-03-01 14:17:00,31.5,26.0,30.08,NE,49,7.0,10.0,80,0.00,,,0.00,Wunderground v.1.15,2013-03-01 19:17:00,
2013-03-01 14:23:00,31.6,25.8,30.08,NNE,32,7.0,8.0,79,0.00,,,0.00,Wunderground v.1.15,2013-03-01 19:23:00,
2013-03-01 14:29:00,31.7,25.6,30.08,NNE,30,7.0,8.0,78,0.00,,,0.00,Wunderground v.1.15,2013-03-01 19:29:00,
2013-03-01 14:35:00,31.8,26.0,30.08,NNE,18,7.0,13.0,79,0.00,,,0.00,Wunderground v.1.15,2013-03-01 19:35:00,
2013-03-01 14:41:00,31.8,25.7,30.08,NNE,16,7.0,9.0,78,0.00,,,0.00,Wunderground v.1.15,2013-03-01 19:41:00,
2013-03-01 14:46:00,31.7,25.6,30.08,NNE,19,8.0,13.0,78,0.00,,,0.00,Wunderground v.1.15,2013-03-01 19:46:00,
2013-03-01 14:51:00,31.6,25.5,30.08,North,11,9.0,13.0,78,0.00,,,0.00,Wunderground v.1.15,2013-03-01 19:51:00,
2013-03-01 14:57:00,31.7,25.6,30.08,NNE,14,9.0,13.0,78,0.00,,,0.00,Wunderground v.1.15,2013-03-01 19:57:00,
2013-03-01 15:03:00,31.7,25.6,30.08,North,352,9.0,12.0,78,0.00,,,0.00,Wunderground v.1.15,2013-03-01 20:03:00,
2013-03-01 15:09:00,31.8,25.7,30.08,NNE,19,8.0,12.0,78,0.00,,,0.00,Wunderground v.1.15,2013-03-01 20:09:00,
2013-03-01 15:15:00,31.8,26.0,30.08,NE,41,8.0,11.0,79,0.00,,,0.00,Wunderground v.1.15,2013-03-01 20:15:00,
2013-03-01 15:21:00,31.7,25.6,30.08,NNE,25,8.0,9.0,78,0.00,,,0.00,Wunderground v.1.15,2013-03-01 20:21:00,
2013-03-01 15:27:00,31.7,25.6,30.08,NNE,14,8.0,10.0,78,0.00,,,0.00,Wunderground v.1.15,2013-03-01 20:27:00,
2013-03-01 15:33:00,31.7,25.3,30.08,North,11,8.0,13.0,77,0.00,,,0.00,Wunderground v.1.15,2013-03-01 20:33:00,
2013-03-01 15:38:00,31.7,25.6,30.08,North,352,7.0,13.0,78,0.00,,,0.00,Wunderground v.1.15,2013-03-01 20:38:00,
2013-03-01 15:44:00,31.6,25.5,30.08,NNE,20,9.0,13.0,78,0.00,,,0.00,Wunderground v.1.15,2013-03-01 20:44:00,
2013-03-01 15:50:00,31.8,25.4,30.08,North,352,8.0,8.0,77,0.00,,,0.00,Wunderground v.1.15,2013-03-01 20:50:00,
2013-03-01 15:55:00,31.8,25.4,30.08,NNE,26,7.0,13.0,77,0.00,,,0.00,Wunderground v.1.15,2013-03-01 20:55:00,
2013-03-01 16:00:00,31.8,25.4,30.08,NE,35,7.0,7.0,77,0.00,,,0.00,Wunderground v.1.15,2013-03-01 21:00:00,
2013-03-01 16:06:00,31.9,25.5,30.08,NNW,338,7.0,10.0,77,0.00,,,0.00,Wunderground v.1.15,2013-03-01 21:06:00,
2013-03-01 16:12:00,31.8,25.1,30.08,North,350,7.0,9.0,76,0.00,,,0.00,Wunderground v.1.15,2013-03-01 21:12:00,
2013-03-01 16:18:00,31.8,25.1,30.09,North,5,8.0,9.0,76,0.00,,,0.00,Wunderground v.1.15,2013-03-01 21:18:00,
2013-03-01 16:24:00,31.8,25.4,30.09,NNE,26,7.0,9.0,77,0.00,,,0.00,Wunderground v.1.15,2013-03-01 21:24:00,
2013-03-01 16:30:00,31.8,25.4,30.09,North,4,8.0,8.0,77,0.00,,,0.00,Wunderground v.1.15,2013-03-01 21:30:00,
2013-03-01 16:36:00,31.8,25.7,30.09,North,4,8.0,13.0,78,0.00,,,0.00,Wunderground v.1.15,2013-03-01 21:36:00,
2013-03-01 16:42:00,31.8,25.4,30.09,North,9,7.0,13.0,77,0.00,,,0.00,Wunderground v.1.15,2013-03-01 21:42:00,
2013-03-01 16:47:00,31.8,25.4,30.09,NNE,25,8.0,13.0,77,0.00,,,0.00,Wunderground v.1.15,2013-03-01 21:47:00,
2013-03-01 16:53:00,31.7,25.3,30.09,NNE,29,9.0,13.0,77,0.00,,,0.00,Wunderground v.1.15,2013-03-01 21:53:00,
2013-03-01 16:59:00,31.7,25.0,30.09,North,352,8.0,13.0,76,0.00,,,0.00,Wunderground v.1.15,2013-03-01 21:59:00,
2013-03-01 17:05:00,31.6,24.9,30.09,North,8,8.0,11.0,76,0.00,,,0.00,Wunderground v.1.15,2013-03-01 22:05:00,
2013-03-01 17:11:00,31.5,24.8,30.09,NNE,23,8.0,9.0,76,0.00,,,0.00,Wunderground v.1.15,2013-03-01 22:11:00,
2013-03-01 17:17:00,31.5,24.5,30.09,NNE,23,9.0,15.0,75,0.00,,,0.00,Wunderground v.1.15,2013-03-01 22:17:00,
2013-03-01 17:23:00,31.3,24.3,30.09,NNE,16,11.0,11.0,75,0.00,,,0.00,Wunderground v.1.15,2013-03-01 22:23:00,
2013-03-01 17:29:00,31.0,24.3,30.10,NNW,333,11.0,13.0,76,0.00,,,0.00,Wunderground v.1.15,2013-03-01 22:29:00,
2013-03-01 17:35:00,30.9,23.9,30.10,NNE,25,12.0,16.0,75,0.00,,,0.00,Wunderground v.1.15,2013-03-01 22:35:00,
2013-03-01 17:41:00,30.8,24.1,30.10,North,354,11.0,14.0,76,0.00,,,0.00,Wunderground v.1.15,2013-03-01 22:41:00,
2013-03-01 17:46:00,30.8,24.4,30.10,North,355,9.0,14.0,77,0.00,,,0.00,Wunderground v.1.15,2013-03-01 22:46:00,
2013-03-01 17:52:00,30.8,24.4,30.10,North,8,8.0,14.0,77,0.00,,,0.00,Wunderground v.1.15,2013-03-01 22:52:00,
2013-03-01 17:58:00,30.6,23.6,30.10,NNE,13,10.0,14.0,75,0.00,,,0.00,Wunderground v.1.15,2013-03-01 22:58:00,
2013-03-01 18:04:00,30.5,23.8,30.10,NNE,25,9.0,10.0,76,0.00,,,0.00,Wunderground v.1.15,2013-03-01 23:04:00,
2013-03-01 18:10:00,30.5,23.8,30.11,NNE,24,8.0,8.0,76,0.00,,,0.00,Wunderground v.1.15,2013-03-01 23:10:00,
2013-03-01 18:16:00,30.3,23.6,30.11,NE,41,9.0,11.0,76,0.00,,,0.00,Wunderground v.1.15,2013-03-01 23:16:00,
2013-03-01 18:22:00,30.2,24.2,30.11,NNE,19,8.0,11.0,78,0.00,,,0.00,Wunderground v.1.15,2013-03-01 23:22:00,
2013-03-01 18:28:00,30.2,24.2,30.11,NE,36,7.0,11.0,78,0.00,,,0.00,Wunderground v.1.15,2013-03-01 23:28:00,
2013-03-01 18:34:00,30.1,23.8,30.12,NNE,29,7.0,17.0,77,0.00,,,0.00,Wunderground v.1.15,2013-03-01 23:34:00,
2013-03-01 18:40:00,30.0,23.4,30.12,North,358,10.0,10.0,76,0.00,,,0.00,Wunderground v.1.15,2013-03-01 23:40:00,
2013-03-01 18:45:00,30.0,23.7,30.12,NNE,27,10.0,17.0,77,0.00,,,0.00,Wunderground v.1.15,2013-03-01 23:45:00,
2013-03-01 18:51:00,29.9,23.3,30.12,NNE,16,10.0,17.0,76,0.00,,,0.00,Wunderground v.1.15,2013-03-01 23:51:00,
2013-03-01 18:57:00,29.8,23.2,30.12,NE,39,9.0,17.0,76,0.00,,,0.00,Wunderground v.1.15,2013-03-01 23:57:00,
2013-03-01 19:02:00,29.7,23.1,30.12,NNE,20,8.0,10.0,76,0.00,,,0.00,Wunderground v.1.15,2013-03-02 00:02:00,
2013-03-01 19:07:00,29.6,23.3,30.12,NNE,13,8.0,10.0,77,0.00,,,0.00,Wunderground v.1.15,2013-03-02 00:07:00,
2013-03-01 19:13:00,29.5,22.9,30.12,NNE,12,9.0,10.0,76,0.00,,,0.00,Wunderground v.1.15,2013-03-02 00:13:00,
2013-03-01 19:19:00,29.5,22.9,30.13,NNE,18,8.0,12.0,76,0.00,,,0.00,Wunderground v.1.15,2013-03-02 00:19:00,
2013-03-01 19:25:00,29.4,23.1,30.13,NNE,23,8.0,11.0,77,0.00,,,0.00,Wunderground v.1.15,2013-03-02 00:25:00,
2013-03-01 19:31:00,29.4,22.8,30.13,NNE,23,7.0,14.0,76,0.00,,,0.00,Wunderground v.1.15,2013-03-02 00:31:00,
2013-03-01 19:37:00,29.4,23.1,30.13,NNE,15,7.0,14.0,77,0.00,,,0.00,Wunderground v.1.15,2013-03-02 00:37:00,
2013-03-01 19:43:00,29.2,22.6,30.13,NNE,32,7.0,14.0,76,0.00,,,0.00,Wunderground v.1.15,2013-03-02 00:43:00,
2013-03-01 19:49:00,29.2,22.6,30.13,North,5,9.0,14.0,76,0.00,,,0.00,Wunderground v.1.15,2013-03-02 00:49:00,
2013-03-01 19:55:00,29.1,22.5,30.13,NE,53,8.0,14.0,76,0.00,,,0.00,Wunderground v.1.15,2013-03-02 00:55:00,
2013-03-01 20:00:00,29.0,22.7,30.13,NNE,31,7.0,12.0,77,0.00,,,0.00,Wunderground v.1.15,2013-03-02 01:00:00,
2013-03-01 20:06:00,29.0,22.7,30.13,NNE,25,8.0,12.0,77,0.00,,,0.00,Wunderground v.1.15,2013-03-02 01:06:00,
2013-03-01 20:11:00,28.9,22.6,30.13,North,1,8.0,9.0,77,0.00,,,0.00,Wunderground v.1.15,2013-03-02 01:11:00,
2013-03-01 20:17:00,28.9,22.9,30.13,North,11,8.0,12.0,78,0.00,,,0.00,Wunderground v.1.15,2013-03-02 01:17:00,
2013-03-01 20:23:00,28.8,22.8,30.13,North,11,9.0,11.0,78,0.00,,,0.00,Wunderground v.1.15,2013-03-02 01:23:00,
2013-03-01 20:29:00,28.6,22.6,30.14,NNE,20,8.0,11.0,78,0.00,,,0.00,Wunderground v.1.15,2013-03-02 01:29:00,
2013-03-01 20:35:00,28.5,22.8,30.13,NNE,21,7.0,16.0,79,0.00,,,0.00,Wunderground v.1.15,2013-03-02 01:35:00,
2013-03-01 20:41:00,28.4,22.7,30.14,NNE,23,6.0,16.0,79,0.00,,,0.00,Wunderground v.1.15,2013-03-02 01:41:00,
2013-03-01 20:47:00,28.3,22.6,30.14,NE,41,7.0,16.0,79,0.00,,,0.00,Wunderground v.1.15,2013-03-02 01:47:00,
2013-03-01 20:53:00,28.2,22.5,30.14,NNE,25,8.0,16.0,79,0.00,,,0.00,Wunderground v.1.15,2013-03-02 01:53:00,
2013-03-01 20:58:00,28.1,22.4,30.14,NNE,32,8.0,16.0,79,0.00,,,0.00,Wunderground v.1.15,2013-03-02 01:58:00,
2013-03-01 21:03:00,28.0,22.3,30.14,North,349,9.0,13.0,79,0.00,,,0.00,Wunderground v.1.15,2013-03-02 02:03:00,
2013-03-01 21:09:00,27.9,22.2,30.14,North,1,8.0,13.0,79,0.00,,,0.00,Wunderground v.1.15,2013-03-02 02:09:00,
2013-03-01 21:14:00,27.8,22.1,30.14,NNE,23,7.0,10.0,79,0.00,,,0.00,Wunderground v.1.15,2013-03-02 02:14:00,
2013-03-01 21:20:00,27.7,22.0,30.15,NNE,16,7.0,7.0,79,0.00,,,0.00,Wunderground v.1.15,2013-03-02 02:20:00,
2013-03-01 21:26:00,27.7,22.3,30.15,NNE,18,6.0,7.0,80,0.00,,,0.00,Wunderground v.1.15,2013-03-02 02:26:00,
2013-03-01 21:32:00,27.7,22.3,30.15,North,8,6.0,14.0,80,0.00,,,0.00,Wunderground v.1.15,2013-03-02 02:32:00,
2013-03-01 21:38:00,27.7,22.3,30.15,North,11,6.0,14.0,80,0.00,,,0.00,Wunderground v.1.15,2013-03-02 02:38:00,
2013-03-01 21:44:00,27.7,22.0,30.15,NNE,16,7.0,14.0,79,0.00,,,0.00,Wunderground v.1.15,2013-03-02 02:44:00,
2013-03-01 21:50:00,27.5,21.8,30.15,NNE,26,9.0,14.0,79,0.00,,,0.00,Wunderground v.1.15,2013-03-02 02:50:00,
2013-03-01 21:56:00,27.4,21.4,30.15,NNE,16,10.0,14.0,78,0.00,,,0.00,Wunderground v.1.15,2013-03-02 02:56:00,
2013-03-01 22:02:00,27.3,21.6,30.15,NE,44,10.0,13.0,79,0.00,,,0.00,Wunderground v.1.15,2013-03-02 03:02:00,
2013-03-01 22:08:00,27.3,21.6,30.15,North,6,10.0,13.0,79,0.00,,,0.00,Wunderground v.1.15,2013-03-02 03:08:00,
2013-03-01 22:14:00,27.2,21.5,30.15,NNE,23,9.0,10.0,79,0.00,,,0.00,Wunderground v.1.15,2013-03-02 03:14:00,
2013-03-01 22:20:00,27.2,21.8,30.15,NNE,23,8.0,8.0,80,0.00,,,0.00,Wunderground v.1.15,2013-03-02 03:20:00,
2013-03-01 22:26:00,27.2,22.1,30.15,North,9,7.0,10.0,81,0.00,,,0.00,Wunderground v.1.15,2013-03-02 03:26:00,
2013-03-01 22:31:00,27.1,22.0,30.15,NNE,29,7.0,13.0,81,0.00,,,0.00,Wunderground v.1.15,2013-03-02 03:31:00,
2013-03-01 22:37:00,27.1,21.7,30.15,North,11,9.0,14.0,80,0.00,,,0.00,Wunderground v.1.15,2013-03-02 03:37:00,
2013-03-01 22:43:00,27.0,21.7,30.15,NNE,18,9.0,14.0,80,0.00,,,0.00,Wunderground v.1.15,2013-03-02 03:43:00,
2013-03-01 22:48:00,26.9,21.6,30.15,North,11,8.0,14.0,80,0.00,,,0.00,Wunderground v.1.15,2013-03-02 03:48:00,
2013-03-01 22:54:00,26.8,21.2,30.15,NNE,21,9.0,14.0,79,0.00,,,0.00,Wunderground v.1.15,2013-03-02 03:54:00,
2013-03-01 23:00:00,26.7,21.1,30.15,NNE,26,11.0,11.0,79,0.00,,,0.00,Wunderground v.1.15,2013-03-02 04:00:00,
2013-03-01 23:06:00,26.7,21.4,30.15,NNE,23,11.0,11.0,80,0.00,,,0.00,Wunderground v.1.15,2013-03-02 04:06:00,
2013-03-01 23:12:00,26.6,21.0,30.15,NNE,13,10.0,12.0,79,0.00,,,0.00,Wunderground v.1.15,2013-03-02 04:12:00,
2013-03-01 23:18:00,26.6,21.3,30.15,NNE,19,9.0,12.0,80,0.00,,,0.00,Wunderground v.1.15,2013-03-02 04:18:00,
2013-03-01 23:23:00,26.4,20.8,30.15,North,357,10.0,14.0,79,0.00,,,0.00,Wunderground v.1.15,2013-03-02 04:23:00,
2013-03-01 23:28:00,26.4,20.8,30.15,NNE,18,11.0,14.0,79,0.00,,,0.00,Wunderground v.1.15,2013-03-02 04:28:00,
2013-03-01 23:34:00,26.3,20.7,30.15,NNE,23,11.0,17.0,79,0.00,,,0.00,Wunderground v.1.15,2013-03-02 04:34:00,
2013-03-01 23:40:00,26.3,20.7,30.15,NNE,19,11.0,11.0,79,0.00,,,0.00,Wunderground v.1.15,2013-03-02 04:40:00,
2013-03-01 23:46:00,26.3,20.7,30.15,NNW,334,10.0,17.0,79,0.00,,,0.00,Wunderground v.1.15,2013-03-02 04:46:00,
2013-03-01 23:52:00,26.2,20.9,30.15,NNE,26,9.0,17.0,80,0.00,,,0.00,Wunderground v.1.15,2013-03-02 04:52:00,
2013-03-01 23:58:00,26.1,20.5,30.15,NNE,27,10.0,17.0,79,0.00,,,0.00,Wunderground v.1.15,2013-03-02 04:58:00,